User: anonymous   Login
Location: Goheenville
(40.9070°N, 79.3720°W)
Time: 13:37:45
(UTC-04:00)
Language:

Meteor 2-10 Rocket - Orbit

View from above orbital plane
View from above orbital plane
View from above satellite
View from above satellite

Ground track
Ground track

The orbit data is extracted from the following two-line orbital elements,

1 14453U 83109B   17266.78130852 +.00000051 +00000-0 +15127-4 0  9990
2 14453 081.1700 007.1154 0105820 138.0967 222.8374 14.24680389761494
Epoch (UTC): 23 September 2017 18:45:05
Eccentricity: 0.0105820
inclination: 81.1700°
perigee height: 733 km
apogee height: 885 km
right ascension of ascending node: 7.1154°
argument of perigee: 138.0967°
revolutions per day: 14.24680389
mean anomaly at epoch: 222.8374°
orbit number at epoch: 76149

The dashed part of the orbit path shows where the satellite is in the earth's shadow,  

DLR